• In Österreich
  • Länderverzeichnis
  • Für 7 Tage
  • Wassertemperatur
  • Satellitenkarten
  • Wetterkarte
  • News
  • Widgets
  • user-avatar
    Anmelden

    Stündliche Wetter Neuquén

    Heute, 25 Mai, Freitag

    Zeit Temperatur Niederschläge Wind Luftdruck Luftfeuchtigkeit
    00:00 +13°C° 0 mm 1 m/S 734 mmHg 36%
    01:00 +13°C° 0 mm 1 m/S 734 mmHg 36%
    02:00 +12°C° 0 mm 1 m/S 734 mmHg 36%
    03:00 +12°C° 0 mm 1 m/S 733 mmHg 36%
    04:00 +11°C° 0 mm 0 m/S 733 mmHg 37%
    05:00 +12°C° 0 mm 1 m/S 733 mmHg 36%
    06:00 +12°C° 0 mm 2 m/S 733 mmHg 36%
    07:00 +12°C° 0 mm 2 m/S 733 mmHg 36%
    08:00 +13°C° 0 mm 3 m/S 733 mmHg 34%
    09:00 +16°C° 0 mm 3 m/S 733 mmHg 32%
    10:00 +18°C° 0 mm 3 m/S 733 mmHg 31%
    11:00 +20°C° 0 mm 4 m/S 732 mmHg 30%
    12:00 +21°C° 0 mm 4 m/S 731 mmHg 30%
    13:00 +22°C° 0 mm 5 m/S 730 mmHg 29%
    14:00 +22°C° 0 mm 4 m/S 729 mmHg 30%
    15:00 +21°C° 0 mm 4 m/S 729 mmHg 32%
    16:00 +20°C° 0 mm 3 m/S 728 mmHg 33%
    17:00 +19°C° 0 mm 4 m/S 728 mmHg 35%
    18:00 +18°C° 0 mm 4 m/S 728 mmHg 38%
    19:00 +17°C° 0 mm 4 m/S 727 mmHg 41%
    20:00 +17°C° 0 mm 4 m/S 727 mmHg 43%
    21:00 +16°C° 0 mm 3 m/S 727 mmHg 46%
    22:00 +16°C° 0 mm 3 m/S 727 mmHg 48%
    23:00 +14°C° 0 mm 3 m/S 727 mmHg 45%

    Morgen, 26 Mai, Samstag

    Zeit Temperatur Niederschläge Wind Luftdruck Luftfeuchtigkeit
    00:00 +14°C° 0 mm 4 m/S 727 mmHg 42%
    01:00 +14°C° 0 mm 4 m/S 727 mmHg 38%
    02:00 +13°C° 0 mm 3 m/S 727 mmHg 37%
    03:00 +13°C° 0 mm 3 m/S 727 mmHg 37%
    04:00 +13°C° 0 mm 2 m/S 727 mmHg 36%
    05:00 +13°C° 0 mm 3 m/S 727 mmHg 34%
    06:00 +13°C° 0 mm 4 m/S 728 mmHg 33%
    07:00 +13°C° 0 mm 5 m/S 728 mmHg 31%
    08:00 +14°C° 0 mm 6 m/S 729 mmHg 32%
    09:00 +15°C° 0 mm 7 m/S 729 mmHg 33%
    10:00 +16°C° 0 mm 8 m/S 730 mmHg 34%
    11:00 +17°C° 0 mm 9 m/S 730 mmHg 31%
    12:00 +18°C° 0 mm 10 m/S 730 mmHg 28%
    13:00 +18°C° 0 mm 12 m/S 731 mmHg 25%
    14:00 +18°C° 0 mm 11 m/S 731 mmHg 26%
    15:00 +17°C° 0 mm 9 m/S 731 mmHg 27%
    16:00 +16°C° 0 mm 8 m/S 731 mmHg 28%
    17:00 +15°C° 0 mm 8 m/S 732 mmHg 31%
    18:00 +12°C° 0 mm 8 m/S 733 mmHg 35%
    19:00 +11°C° 0 mm 7 m/S 734 mmHg 38%
    20:00 +10°C° 0 mm 6 m/S 734 mmHg 40%
    21:00 +9°C° 0 mm 5 m/S 735 mmHg 42%
    22:00 +10°C° 0 mm 4 m/S 736 mmHg 43%
    23:00 +8°C° 0 mm 4 m/S 736 mmHg 45%

    übermorgen, 27 Mai, Sonntag

    Zeit Temperatur Niederschläge Wind Luftdruck Luftfeuchtigkeit
    00:00 +9°C° 0 mm 3 m/S 736 mmHg 47%
    01:00 +8°C° 0 mm 3 m/S 736 mmHg 49%
    02:00 +8°C° 0 mm 2 m/S 736 mmHg 51%
    03:00 +8°C° 0 mm 2 m/S 736 mmHg 52%
    04:00 +7°C° 0 mm 2 m/S 736 mmHg 53%
    05:00 +8°C° 0 mm 2 m/S 736 mmHg 53%
    06:00 +8°C° 0 mm 2 m/S 736 mmHg 53%
    07:00 +8°C° 0 mm 2 m/S 736 mmHg 53%
    08:00 +9°C° 0 mm 3 m/S 736 mmHg 46%
    09:00 +11°C° 0 mm 4 m/S 736 mmHg 40%
    10:00 +13°C° 0 mm 5 m/S 736 mmHg 33%
    11:00 +14°C° 0 mm 6 m/S 735 mmHg 31%
    12:00 +15°C° 0 mm 7 m/S 734 mmHg 29%
    13:00 +16°C° 0 mm 7 m/S 733 mmHg 27%
    14:00 +15°C° 0 mm 7 m/S 732 mmHg 30%
    15:00 +15°C° 0 mm 6 m/S 732 mmHg 32%
    16:00 +15°C° 0 mm 5 m/S 731 mmHg 34%
    17:00 +15°C° 0 mm 5 m/S 731 mmHg 38%
    18:00 +14°C° 0 mm 5 m/S 731 mmHg 42%
    19:00 +14°C° 0 mm 5 m/S 730 mmHg 46%
    20:00 +13°C° 0 mm 5 m/S 730 mmHg 51%
    21:00 +13°C° 0 mm 5 m/S 729 mmHg 56%
    22:00 +13°C° 0 mm 5 m/S 729 mmHg 61%
    23:00 +12°C° 0 mm 5 m/S 728 mmHg 69%

    28 Mai, Montag

    Zeit Temperatur Niederschläge Wind Luftdruck Luftfeuchtigkeit
    00:00 +12°C° 0 mm 5 m/S 727 mmHg 76%
    01:00 +12°C° 0 mm 5 m/S 727 mmHg 83%
    02:00 +11°C° 0 mm 6 m/S 726 mmHg 85%
    03:00 +13°C° 0 mm 6 m/S 725 mmHg 88%
    04:00 +13°C° 0 mm 6 m/S 724 mmHg 90%
    05:00 +13°C° 0 mm 6 m/S 723 mmHg 89%
    06:00 +13°C° 0 mm 5 m/S 723 mmHg 88%
    07:00 +13°C° 0 mm 5 m/S 722 mmHg 87%
    08:00 +14°C° 0 mm 6 m/S 722 mmHg 78%
    09:00 +15°C° 0 mm 6 m/S 721 mmHg 68%
    10:00 +16°C° 0 mm 7 m/S 721 mmHg 59%
    11:00 +18°C° 0 mm 7 m/S 721 mmHg 48%
    12:00 +20°C° 0 mm 7 m/S 720 mmHg 37%
    13:00 +22°C° 0 mm 8 m/S 720 mmHg 27%
    14:00 +21°C° 0 mm 8 m/S 721 mmHg 27%
    15:00 +19°C° 0 mm 9 m/S 721 mmHg 28%
    16:00 +18°C° 0 mm 9 m/S 722 mmHg 29%
    17:00 +17°C° 0 mm 11 m/S 722 mmHg 30%
    18:00 +15°C° 0 mm 14 m/S 723 mmHg 31%
    19:00 +14°C° 0 mm 17 m/S 724 mmHg 31%
    20:00 +13°C° 0 mm 16 m/S 724 mmHg 34%
    21:00 +13°C° 0 mm 15 m/S 724 mmHg 36%
    22:00 +12°C° 0 mm 13 m/S 725 mmHg 38%
    23:00 +12°C° 0 mm 13 m/S 725 mmHg 40%

    29 Mai, Dienstag

    Zeit Temperatur Niederschläge Wind Luftdruck Luftfeuchtigkeit
    00:00 +12°C° 0 mm 13 m/S 725 mmHg 42%
    01:00 +10°C° 0 mm 13 m/S 725 mmHg 44%
    02:00 +10°C° 0 mm 13 m/S 726 mmHg 44%
    03:00 +10°C° 0 mm 12 m/S 726 mmHg 44%
    04:00 +10°C° 0 mm 12 m/S 726 mmHg 44%
    05:00 +9°C° 0 mm 12 m/S 727 mmHg 44%
    06:00 +9°C° 0 mm 11 m/S 728 mmHg 44%
    07:00 +9°C° 0 mm 10 m/S 729 mmHg 43%
    08:00 +11°C° 0 mm 11 m/S 729 mmHg 39%
    09:00 +12°C° 0 mm 13 m/S 730 mmHg 35%
    10:00 +13°C° 0 mm 14 m/S 731 mmHg 31%
    11:00 +14°C° 0 mm 15 m/S 730 mmHg 28%
    12:00 +14°C° 0 mm 16 m/S 730 mmHg 25%
    13:00 +15°C° 0 mm 16 m/S 730 mmHg 22%
    14:00 +15°C° 0 mm 15 m/S 730 mmHg 23%
    15:00 +14°C° 0 mm 13 m/S 730 mmHg 24%
    16:00 +14°C° 0 mm 12 m/S 730 mmHg 25%
    17:00 +13°C° 0 mm 10 m/S 730 mmHg 28%
    18:00 +12°C° 0 mm 9 m/S 730 mmHg 31%
    19:00 +11°C° 0 mm 7 m/S 730 mmHg 34%
    20:00 +11°C° 0 mm 8 m/S 730 mmHg 36%
    21:00 +11°C° 0 mm 8 m/S 731 mmHg 37%
    22:00 +10°C° 0 mm 8 m/S 731 mmHg 38%
    23:00 +11°C° 0,1 mm 8 m/S 730 mmHg 36%

    30 Mai, Mittwoch

    Zeit Temperatur Niederschläge Wind Luftdruck Luftfeuchtigkeit
    00:00 +11°C° 0,1 mm 9 m/S 730 mmHg 34%
    01:00 +11°C° 0,1 mm 9 m/S 730 mmHg 33%
    02:00 +11°C° 0 mm 9 m/S 730 mmHg 35%
    03:00 +10°C° 0 mm 9 m/S 730 mmHg 37%
    04:00 +10°C° 0 mm 9 m/S 729 mmHg 39%
    05:00 +9°C° 0,2 mm 8 m/S 730 mmHg 45%
    06:00 +9°C° 0,2 mm 7 m/S 730 mmHg 51%
    07:00 +8°C° 0,2 mm 7 m/S 730 mmHg 56%
    08:00 +9°C° 0,3 mm 8 m/S 731 mmHg 50%
    09:00 +8°C° 0,3 mm 10 m/S 731 mmHg 43%
    10:00 +9°C° 0,3 mm 12 m/S 732 mmHg 36%
    11:00 +9°C° 0 mm 12 m/S 732 mmHg 34%
    12:00 +9°C° 0 mm 13 m/S 732 mmHg 32%
    13:00 +9°C° 0 mm 13 m/S 732 mmHg 31%
    14:00 +8°C° 0 mm 12 m/S 732 mmHg 30%
    15:00 +7°C° 0 mm 12 m/S 733 mmHg 30%
    16:00 +7°C° 0 mm 11 m/S 733 mmHg 30%
    17:00 +6°C° 0 mm 10 m/S 734 mmHg 33%
    18:00 +5°C° 0 mm 9 m/S 734 mmHg 37%
    19:00 +5°C° 0 mm 8 m/S 735 mmHg 40%
    20:00 +4°C° 0 mm 7 m/S 735 mmHg 42%
    21:00 +4°C° 0 mm 6 m/S 735 mmHg 44%
    22:00 +4°C° 0 mm 6 m/S 735 mmHg 46%
    23:00 +5°C° 0 mm 5 m/S 735 mmHg 47%
    Mehr zeigen